sat.trackr.live / text

‹ back to catalog

STARLINK-2746

NORAD 48676 · 2021-044AQ

PAYLOAD ACTIVE UNKNOWN

§ Identity

Operator
Country
US
Launch date
2021-05-26
Launch site
AFETR
Launch vehicle
Mass (kg)
RCS (m²)

Purposes: comms

External: N2YO · Heavens-Above · Gunter

§ Orbital elements

Epoch: 2026-09-19T19:12:21.277728Z

Period
94.01 min
Inclination
53.1599°
Eccentricity
0.0001357
Mean motion
15.31699839 rev/d
Perigee alt
469.8 km
Apogee alt
471.7 km
Semi-major
6,848.9 km
B*
6.3650e-5
RAAN
292.0563°
Arg perigee
86.3799°
Mean anomaly
273.7357°
Rev number
29,353

§ Raw data

STARLINK-27461 48676U 21044AQ  26262.80024627  .00001610  00000+0  63650-4 0  99902 48676  53.1599 292.0563 0001357  86.3799 273.7357 15.31699839293530

JSON: /api/v1/satellites/48676 · /tle

For live sub-satellite position, see the globe view (requires WebGL).

§ Visibility from observer

Set your observer location to see the next 7 days of passes ≥ 10°. The values pass through the URL so the page stays shareable.

No JS? Fill the form by hand. The geolocation button needs JavaScript.